Weather History for KMVL - April, 2014

Change the Weather History Date:

Friday, April 11, 2014

  Actual Average Record
Temperature  
Mean Temperature 45 °F 40 °F  
Max Temperature 61 °F 51 °F 66 °F (2011)
Min Temperature 28 °F 28 °F 15 °F (1997)
Degree Days  
Heating Degree Days 20 25  
Month to date heating degree days 299 303  
Since 1 July heating degree days 7805 7390  
Cooling Degree Days 0 0  
Month to date cooling degree days 0 0  
Year to date cooling degree days 0 0  
Moisture  
Dew Point 30 °F    
Average Humidity 58    
Maximum Humidity 89    
Minimum Humidity 26    
Precipitation  
Precipitation 0.02 in 0.08 in 0.66 in (2011)
Month to date precipitation 0.66 0.92  
Year to date precipitation 7.93 6.87  
Sea Level Pressure  
Sea Level Pressure 29.95 in    
Wind  
Wind Speed 4 mph (WSW)    
Max Wind Speed 15 mph    
Max Gust Speed 28 mph    
Visibility 10 miles    
Events Rain    
T = Trace of Precipitation, MM = Missing Value Source: NWS Daily Summary

Daily Weather History Graph

Daily Weather History Graph

Search for Another Location

Airport or City:

Trip Planner

Search our weather history database for the weather conditions in past years. The results will help you decide how hot, cold, wet, or windy it might be!

Date:

Astronomy

Apr. 11, 2014 Rise Set
Actual Time 6:13 AM EDT 7:30 PM EDT
Civil Twilight 5:43 AM EDT 8:00 PM EDT
Nautical Twilight 5:07 AM EDT 8:36 PM EDT
Astronomical Twilight 4:29 AM EDT 9:15 PM EDT
Moon 4:00 PM EDT (4/11) 4:15 AM EDT (4/11)
Length of Visible Light 14h 16m
Length of Day
13h 16m
Waxing Gibbous, 87% of the Moon is Illuminated
Apr 11
Waxing Gibbous
Apr 15
Full
Apr 22
Last Quarter
Apr 29
New
May 6
First Quarter

Hourly Weather History & Observations

Time (EDT) Temp. Windchill Dew Point Humidity Pressure Visibility Wind Dir Wind Speed Gust Speed Precip Events Conditions
12:54 AM 55.0 °F - 28.9 °F 37% 29.80 in 10.0 mi SSW 4.6 mph - N/A   Overcast
1:54 AM 55.0 °F - 30.0 °F 38% 29.81 in 10.0 mi South 6.9 mph - N/A   Overcast
2:54 AM 54.0 °F - 30.9 °F 41% 29.81 in 10.0 mi Variable 3.5 mph - N/A   Overcast
3:54 AM 52.0 °F - 36.0 °F 54% 29.83 in 10.0 mi WSW 5.8 mph - 0.00 in Rain Light Rain
4:54 AM 48.0 °F - 39.0 °F 71% 29.88 in 10.0 mi Calm Calm - 0.02 in   Overcast
5:54 AM 44.1 °F - 41.0 °F 89% 29.91 in 10.0 mi Calm Calm - N/A   Overcast
6:54 AM 41.0 °F - 37.0 °F 86% 29.93 in 10.0 mi Calm Calm - N/A   Partly Cloudy
7:54 AM 43.0 °F - 39.0 °F 86% 29.95 in 10.0 mi Calm Calm - N/A   Clear
8:54 AM 52.0 °F - 36.0 °F 54% 29.96 in 10.0 mi Variable 5.8 mph - N/A   Clear
9:54 AM 54.0 °F - 30.0 °F 40% 29.97 in 10.0 mi WSW 10.4 mph 18.4 mph N/A   Clear
10:54 AM 55.9 °F - 30.9 °F 39% 29.96 in 10.0 mi WSW 8.1 mph - N/A   Clear
11:54 AM 57.0 °F - 28.0 °F 33% 29.95 in 10.0 mi Variable 5.8 mph 18.4 mph N/A   Clear
12:54 PM 57.9 °F - 28.0 °F 32% 29.95 in 10.0 mi North - - N/A   Clear
1:54 PM 60.1 °F - 28.0 °F 30% 29.96 in 10.0 mi West 8.1 mph 17.3 mph N/A   Clear
2:54 PM 59.0 °F - 26.1 °F 28% 29.95 in 10.0 mi WSW 11.5 mph 20.7 mph N/A   Clear
3:54 PM 57.0 °F - 25.0 °F 29% 29.96 in 10.0 mi West 10.4 mph 19.6 mph N/A   Clear
4:54 PM 55.9 °F - 25.0 °F 30% 29.96 in 10.0 mi NW 9.2 mph - N/A   Clear
5:54 PM 55.0 °F - 21.0 °F 27% 29.98 in 10.0 mi North 4.6 mph - N/A   Clear
6:54 PM 48.0 °F - 26.1 °F 42% 30.01 in 10.0 mi NNW 3.5 mph - N/A   Clear
7:54 PM 43.0 °F - 28.0 °F 56% 30.03 in 10.0 mi Calm Calm - N/A   Clear
8:54 PM 37.0 °F - 28.0 °F 70% 30.04 in 10.0 mi Calm Calm - N/A   Clear
9:54 PM 35.1 °F - 27.0 °F 72% 30.05 in 10.0 mi Calm Calm - N/A   Clear
10:54 PM 30.9 °F 27.5 °F 26.1 °F 82% 30.06 in 10.0 mi SSE 3.5 mph - N/A   Clear
11:54 PM 30.9 °F - 25.0 °F 79% 30.05 in 10.0 mi Calm Calm - N/A   Clear